Netzbetreibername:;Netze Duisburg GmbH
Netz- oder Umspannebene:;
Lastgangtyp:;Lastverlauf
gesetzliche Grundlage:;� 17 Abs. 2 Nr. 1 StromNZV
Einheit:;kW
;
Datum;Betrag
01.01.2020 00:00;160.910
01.01.2020 00:15;161.607
01.01.2020 00:30;162.802
01.01.2020 00:45;162.801
01.01.2020 01:00;161.076
01.01.2020 01:15;159.368
01.01.2020 01:30;157.654
01.01.2020 01:45;155.712
01.01.2020 02:00;154.475
01.01.2020 02:15;153.010
01.01.2020 02:30;150.638
01.01.2020 02:45;148.849
01.01.2020 03:00;148.762
01.01.2020 03:15;146.174
01.01.2020 03:30;145.424
01.01.2020 03:45;143.668
01.01.2020 04:00;142.591
01.01.2020 04:15;141.250
01.01.2020 04:30;140.556
01.01.2020 04:45;140.038
01.01.2020 05:00;139.886
01.01.2020 05:15;138.654
01.01.2020 05:30;137.502
01.01.2020 05:45;136.788
01.01.2020 06:00;137.962
01.01.2020 06:15;136.895
01.01.2020 06:30;136.578
01.01.2020 06:45;136.197
01.01.2020 07:00;137.472
01.01.2020 07:15;138.641
01.01.2020 07:30;140.019
01.01.2020 07:45;142.589
01.01.2020 08:00;143.807
01.01.2020 08:15;144.534
01.01.2020 08:30;148.487
01.01.2020 08:45;152.402
01.01.2020 09:00;156.524
01.01.2020 09:15;161.316
01.01.2020 09:30;166.126
01.01.2020 09:45;170.093
01.01.2020 10:00;175.143
01.01.2020 10:15;180.359
01.01.2020 10:30;184.167
01.01.2020 10:45;187.574
01.01.2020 11:00;191.154
01.01.2020 11:15;195.516
01.01.2020 11:30;198.455
01.01.2020 11:45;201.697
01.01.2020 12:00;204.666
01.01.2020 12:15;207.322
01.01.2020 12:30;208.910
01.01.2020 12:45;209.768
01.01.2020 13:00;208.257
01.01.2020 13:15;209.247
01.01.2020 13:30;207.426
01.01.2020 13:45;206.671
01.01.2020 14:00;211.529
01.01.2020 14:15;213.002
01.01.2020 14:30;211.905
01.01.2020 14:45;211.218
01.01.2020 15:00;211.766
01.01.2020 15:15;209.801
01.01.2020 15:30;207.843
01.01.2020 15:45;207.902
01.01.2020 16:00;207.293
01.01.2020 16:15;209.862
01.01.2020 16:30;213.796
01.01.2020 16:45;221.449
01.01.2020 17:00;226.232
01.01.2020 17:15;230.120
01.01.2020 17:30;232.105
01.01.2020 17:45;232.593
01.01.2020 18:00;233.813
01.01.2020 18:15;232.600
01.01.2020 18:30;231.944
01.01.2020 18:45;229.474
01.01.2020 19:00;229.500
01.01.2020 19:15;226.276
01.01.2020 19:30;223.375
01.01.2020 19:45;220.990
01.01.2020 20:00;216.887
01.01.2020 20:15;214.791
01.01.2020 20:30;214.353
01.01.2020 20:45;212.895
01.01.2020 21:00;211.224
01.01.2020 21:15;211.430
01.01.2020 21:30;208.804
01.01.2020 21:45;208.785
01.01.2020 22:00;203.763
01.01.2020 22:15;199.380
01.01.2020 22:30;193.993
01.01.2020 22:45;190.734
01.01.2020 23:00;184.327
01.01.2020 23:15;178.290
01.01.2020 23:30;173.058
01.01.2020 23:45;168.303
02.01.2020 00:00;163.698
02.01.2020 00:15;159.555
02.01.2020 00:30;155.932
02.01.2020 00:45;153.698
02.01.2020 01:00;150.728
02.01.2020 01:15;148.080
02.01.2020 01:30;145.017
02.01.2020 01:45;143.550
02.01.2020 02:00;143.584
02.01.2020 02:15;142.308
02.01.2020 02:30;140.918
02.01.2020 02:45;140.385
02.01.2020 03:00;140.832
02.01.2020 03:15;140.725
02.01.2020 03:30;141.405
02.01.2020 03:45;142.979
02.01.2020 04:00;145.034
02.01.2020 04:15;146.004
02.01.2020 04:30;148.441
02.01.2020 04:45;150.913
02.01.2020 05:00;156.604
02.01.2020 05:15;158.839
02.01.2020 05:30;163.632
02.01.2020 05:45;168.807
02.01.2020 06:00;178.858
02.01.2020 06:15;186.736
02.01.2020 06:30;192.654
02.01.2020 06:45;198.484
02.01.2020 07:00;204.538
02.01.2020 07:15;210.699
02.01.2020 07:30;216.976
02.01.2020 07:45;221.691
02.01.2020 08:00;228.451
02.01.2020 08:15;234.834
02.01.2020 08:30;237.865
02.01.2020 08:45;243.346
02.01.2020 09:00;247.837
02.01.2020 09:15;252.316
02.01.2020 09:30;253.352
02.01.2020 09:45;255.210
02.01.2020 10:00;257.416
02.01.2020 10:15;260.495
02.01.2020 10:30;262.646
02.01.2020 10:45;264.805
02.01.2020 11:00;265.842
02.01.2020 11:15;269.158
02.01.2020 11:30;271.512
02.01.2020 11:45;272.503
02.01.2020 12:00;273.920
02.01.2020 12:15;275.657
02.01.2020 12:30;277.094
02.01.2020 12:45;275.712
02.01.2020 13:00;273.734
02.01.2020 13:15;271.134
02.01.2020 13:30;270.023
02.01.2020 13:45;269.168
02.01.2020 14:00;271.877
02.01.2020 14:15;273.946
02.01.2020 14:30;273.719
02.01.2020 14:45;272.081
02.01.2020 15:00;269.347
02.01.2020 15:15;266.451
02.01.2020 15:30;264.774
02.01.2020 15:45;263.596
02.01.2020 16:00;262.465
02.01.2020 16:15;263.485
02.01.2020 16:30;266.808
02.01.2020 16:45;270.826
02.01.2020 17:00;275.504
02.01.2020 17:15;273.044
02.01.2020 17:30;272.047
02.01.2020 17:45;271.250
02.01.2020 18:00;269.131
02.01.2020 18:15;266.202
02.01.2020 18:30;266.045
02.01.2020 18:45;266.953
02.01.2020 19:00;264.140
02.01.2020 19:15;259.643
02.01.2020 19:30;256.760
02.01.2020 19:45;252.914
02.01.2020 20:00;245.950
02.01.2020 20:15;240.659
02.01.2020 20:30;240.004
02.01.2020 20:45;237.103
02.01.2020 21:00;233.404
02.01.2020 21:15;230.954
02.01.2020 21:30;227.640
02.01.2020 21:45;226.290
02.01.2020 22:00;218.947
02.01.2020 22:15;211.312
02.01.2020 22:30;204.732
02.01.2020 22:45;198.425
02.01.2020 23:00;193.986
02.01.2020 23:15;185.909
02.01.2020 23:30;179.123
02.01.2020 23:45;173.342
03.01.2020 00:00;169.271
03.01.2020 00:15;163.591
03.01.2020 00:30;159.893
03.01.2020 00:45;156.343
03.01.2020 01:00;153.123
03.01.2020 01:15;150.414
03.01.2020 01:30;147.633
03.01.2020 01:45;146.654
03.01.2020 02:00;144.875
03.01.2020 02:15;144.068
03.01.2020 02:30;143.644
03.01.2020 02:45;143.015
03.01.2020 03:00;143.072
03.01.2020 03:15;143.337
03.01.2020 03:30;143.790
03.01.2020 03:45;144.976
03.01.2020 04:00;147.670
03.01.2020 04:15;148.424
03.01.2020 04:30;150.191
03.01.2020 04:45;152.838
03.01.2020 05:00;157.403
03.01.2020 05:15;160.276
03.01.2020 05:30;165.019
03.01.2020 05:45;171.128
03.01.2020 06:00;180.559
03.01.2020 06:15;186.996
03.01.2020 06:30;192.586
03.01.2020 06:45;197.516
03.01.2020 07:00;205.498
03.01.2020 07:15;211.115
03.01.2020 07:30;216.702
03.01.2020 07:45;220.800
03.01.2020 08:00;226.326
03.01.2020 08:15;230.106
03.01.2020 08:30;232.147
03.01.2020 08:45;235.104
03.01.2020 09:00;239.390
03.01.2020 09:15;243.270
03.01.2020 09:30;246.438
03.01.2020 09:45;250.190
03.01.2020 10:00;251.196
03.01.2020 10:15;254.764
03.01.2020 10:30;256.707
03.01.2020 10:45;259.616
03.01.2020 11:00;260.505
03.01.2020 11:15;263.192
03.01.2020 11:30;264.381
03.01.2020 11:45;264.973
03.01.2020 12:00;266.471
03.01.2020 12:15;266.789
03.01.2020 12:30;266.633
03.01.2020 12:45;265.933
03.01.2020 13:00;267.760
03.01.2020 13:15;268.881
03.01.2020 13:30;266.185
03.01.2020 13:45;263.326
03.01.2020 14:00;263.828
03.01.2020 14:15;266.512
03.01.2020 14:30;268.786
03.01.2020 14:45;267.020
03.01.2020 15:00;265.875
03.01.2020 15:15;263.411
03.01.2020 15:30;261.353
03.01.2020 15:45;261.026
03.01.2020 16:00;257.424
03.01.2020 16:15;256.444
03.01.2020 16:30;259.915
03.01.2020 16:45;265.262
03.01.2020 17:00;269.120
03.01.2020 17:15;268.850
03.01.2020 17:30;267.833
03.01.2020 17:45;266.233
03.01.2020 18:00;264.644
03.01.2020 18:15;264.212
03.01.2020 18:30;263.828
03.01.2020 18:45;263.618
03.01.2020 19:00;259.344
03.01.2020 19:15;257.856
03.01.2020 19:30;254.952
03.01.2020 19:45;250.208
03.01.2020 20:00;243.356
03.01.2020 20:15;240.174
03.01.2020 20:30;238.800
03.01.2020 20:45;236.108
03.01.2020 21:00;230.860
03.01.2020 21:15;228.792
03.01.2020 21:30;222.962
03.01.2020 21:45;220.981
03.01.2020 22:00;214.142
03.01.2020 22:15;210.064
03.01.2020 22:30;203.971
03.01.2020 22:45;196.773
03.01.2020 23:00;190.380
03.01.2020 23:15;185.402
03.01.2020 23:30;180.666
03.01.2020 23:45;176.034
04.01.2020 00:00;170.806
04.01.2020 00:15;165.586
04.01.2020 00:30;161.079
04.01.2020 00:45;157.268
04.01.2020 01:00;153.434
04.01.2020 01:15;150.690
04.01.2020 01:30;149.138
04.01.2020 01:45;147.240
04.01.2020 02:00;145.822
04.01.2020 02:15;144.507
04.01.2020 02:30;144.587
04.01.2020 02:45;144.739
04.01.2020 03:00;144.638
04.01.2020 03:15;143.815
04.01.2020 03:30;143.737
04.01.2020 03:45;142.844
04.01.2020 04:00;144.209
04.01.2020 04:15;143.648
04.01.2020 04:30;144.733
04.01.2020 04:45;145.682
04.01.2020 05:00;146.848
04.01.2020 05:15;146.800
04.01.2020 05:30;148.448
04.01.2020 05:45;149.795
04.01.2020 06:00;153.636
04.01.2020 06:15;154.969
04.01.2020 06:30;157.767
04.01.2020 06:45;161.090
04.01.2020 07:00;165.539
04.01.2020 07:15;168.706
04.01.2020 07:30;174.405
04.01.2020 07:45;179.095
04.01.2020 08:00;186.043
04.01.2020 08:15;190.739
04.01.2020 08:30;196.591
04.01.2020 08:45;202.600
04.01.2020 09:00;210.012
04.01.2020 09:15;214.298
04.01.2020 09:30;218.618
04.01.2020 09:45;222.107
04.01.2020 10:00;226.294
04.01.2020 10:15;232.532
04.01.2020 10:30;236.587
04.01.2020 10:45;238.198
04.01.2020 11:00;241.230
04.01.2020 11:15;243.252
04.01.2020 11:30;242.800
04.01.2020 11:45;243.910
04.01.2020 12:00;245.612
04.01.2020 12:15;248.018
04.01.2020 12:30;248.086
04.01.2020 12:45;249.212
04.01.2020 13:00;248.757
04.01.2020 13:15;248.782
04.01.2020 13:30;245.377
04.01.2020 13:45;244.356
04.01.2020 14:00;249.438
04.01.2020 14:15;251.355
04.01.2020 14:30;252.092
04.01.2020 14:45;249.649
04.01.2020 15:00;250.314
04.01.2020 15:15;248.304
04.01.2020 15:30;245.752
04.01.2020 15:45;244.764
04.01.2020 16:00;243.406
04.01.2020 16:15;242.499
04.01.2020 16:30;244.107
04.01.2020 16:45;248.286
04.01.2020 17:00;254.372
04.01.2020 17:15;253.806
04.01.2020 17:30;252.671
04.01.2020 17:45;251.638
04.01.2020 18:00;249.940
04.01.2020 18:15;247.616
04.01.2020 18:30;247.393
04.01.2020 18:45;246.142
04.01.2020 19:00;243.210
04.01.2020 19:15;240.444
04.01.2020 19:30;236.885
04.01.2020 19:45;232.598
04.01.2020 20:00;226.714
04.01.2020 20:15;221.302
04.01.2020 20:30;219.338
04.01.2020 20:45;217.150
04.01.2020 21:00;214.307
04.01.2020 21:15;214.257
04.01.2020 21:30;211.908
04.01.2020 21:45;210.697
04.01.2020 22:00;205.823
04.01.2020 22:15;200.800
04.01.2020 22:30;196.721
04.01.2020 22:45;193.404
04.01.2020 23:00;187.880
04.01.2020 23:15;183.208
04.01.2020 23:30;179.319
04.01.2020 23:45;173.913
05.01.2020 00:00;168.212
05.01.2020 00:15;162.929
05.01.2020 00:30;159.261
05.01.2020 00:45;156.364
05.01.2020 01:00;152.010
05.01.2020 01:15;147.914
05.01.2020 01:30;146.269
05.01.2020 01:45;143.833
05.01.2020 02:00;141.678
05.01.2020 02:15;140.896
05.01.2020 02:30;139.176
05.01.2020 02:45;138.065
05.01.2020 03:00;137.976
05.01.2020 03:15;136.780
05.01.2020 03:30;136.467
05.01.2020 03:45;137.045
05.01.2020 04:00;136.749
05.01.2020 04:15;136.330
05.01.2020 04:30;135.280
05.01.2020 04:45;136.071
05.01.2020 05:00;136.239
05.01.2020 05:15;135.619
05.01.2020 05:30;135.514
05.01.2020 05:45;135.578
05.01.2020 06:00;135.733
05.01.2020 06:15;135.458
05.01.2020 06:30;136.492
05.01.2020 06:45;137.676
05.01.2020 07:00;141.726
05.01.2020 07:15;144.711
05.01.2020 07:30;148.326
05.01.2020 07:45;152.982
05.01.2020 08:00;157.492
05.01.2020 08:15;161.076
05.01.2020 08:30;165.656
05.01.2020 08:45;170.840
05.01.2020 09:00;176.716
05.01.2020 09:15;183.460
05.01.2020 09:30;189.186
05.01.2020 09:45;192.731
05.01.2020 10:00;197.859
05.01.2020 10:15;204.717
05.01.2020 10:30;208.305
05.01.2020 10:45;212.044
05.01.2020 11:00;217.362
05.01.2020 11:15;221.463
05.01.2020 11:30;225.398
05.01.2020 11:45;229.117
05.01.2020 12:00;231.067
05.01.2020 12:15;231.986
05.01.2020 12:30;233.524
05.01.2020 12:45;232.331
05.01.2020 13:00;231.228
05.01.2020 13:15;231.346
05.01.2020 13:30;228.970
05.01.2020 13:45;228.027
05.01.2020 14:00;231.735
05.01.2020 14:15;232.758
05.01.2020 14:30;231.577
05.01.2020 14:45;230.560
05.01.2020 15:00;228.680
05.01.2020 15:15;228.269
05.01.2020 15:30;226.728
05.01.2020 15:45;226.128
05.01.2020 16:00;224.809
05.01.2020 16:15;226.962
05.01.2020 16:30;229.470
05.01.2020 16:45;233.155
05.01.2020 17:00;238.168
05.01.2020 17:15;239.824
05.01.2020 17:30;241.453
05.01.2020 17:45;241.784
05.01.2020 18:00;241.624
05.01.2020 18:15;240.306
05.01.2020 18:30;239.414
05.01.2020 18:45;237.633
05.01.2020 19:00;237.594
05.01.2020 19:15;235.322
05.01.2020 19:30;231.627
05.01.2020 19:45;226.455
05.01.2020 20:00;222.558
05.01.2020 20:15;219.059
05.01.2020 20:30;217.213
05.01.2020 20:45;214.211
05.01.2020 21:00;213.038
05.01.2020 21:15;211.573
05.01.2020 21:30;209.135
05.01.2020 21:45;208.794
05.01.2020 22:00;203.011
05.01.2020 22:15;197.799
05.01.2020 22:30;192.013
05.01.2020 22:45;186.612
05.01.2020 23:00;180.236
05.01.2020 23:15;174.207
05.01.2020 23:30;168.183
05.01.2020 23:45;163.136
06.01.2020 00:00;158.728
06.01.2020 00:15;154.786
06.01.2020 00:30;149.952
06.01.2020 00:45;146.857
06.01.2020 01:00;144.170
06.01.2020 01:15;141.276
06.01.2020 01:30;139.358
06.01.2020 01:45;137.580
06.01.2020 02:00;136.005
06.01.2020 02:15;135.688
06.01.2020 02:30;136.115
06.01.2020 02:45;135.914
06.01.2020 03:00;137.037
06.01.2020 03:15;137.878
06.01.2020 03:30;138.627
06.01.2020 03:45;140.679
06.01.2020 04:00;143.257
06.01.2020 04:15;145.007
06.01.2020 04:30;148.142
06.01.2020 04:45;153.985
06.01.2020 05:00;160.284
06.01.2020 05:15;164.092
06.01.2020 05:30;170.066
06.01.2020 05:45;178.442
06.01.2020 06:00;193.100
06.01.2020 06:15;203.920
06.01.2020 06:30;211.738
06.01.2020 06:45;218.353
06.01.2020 07:00;225.946
06.01.2020 07:15;233.189
06.01.2020 07:30;239.346
06.01.2020 07:45;244.088
06.01.2020 08:00;250.300
06.01.2020 08:15;253.420
06.01.2020 08:30;254.071
06.01.2020 08:45;255.848
06.01.2020 09:00;258.414
06.01.2020 09:15;260.913
06.01.2020 09:30;260.699
06.01.2020 09:45;262.474
06.01.2020 10:00;264.048
06.01.2020 10:15;267.111
06.01.2020 10:30;266.636
06.01.2020 10:45;268.555
06.01.2020 11:00;271.196
06.01.2020 11:15;273.119
06.01.2020 11:30;272.224
06.01.2020 11:45;273.630
06.01.2020 12:00;274.228
06.01.2020 12:15;272.595
06.01.2020 12:30;272.572
06.01.2020 12:45;271.656
06.01.2020 13:00;271.132
06.01.2020 13:15;271.905
06.01.2020 13:30;269.817
06.01.2020 13:45;267.316
06.01.2020 14:00;269.019
06.01.2020 14:15;270.827
06.01.2020 14:30;270.192
06.01.2020 14:45;267.347
06.01.2020 15:00;266.764
06.01.2020 15:15;263.931
06.01.2020 15:30;262.337
06.01.2020 15:45;260.756
06.01.2020 16:00;259.370
06.01.2020 16:15;259.526
06.01.2020 16:30;262.580
06.01.2020 16:45;269.330
06.01.2020 17:00;277.245
06.01.2020 17:15;281.344
06.01.2020 17:30;283.826
06.01.2020 17:45;283.395
06.01.2020 18:00;281.496
06.01.2020 18:15;281.868
06.01.2020 18:30;281.484
06.01.2020 18:45;281.030
06.01.2020 19:00;281.179
06.01.2020 19:15;276.930
06.01.2020 19:30;273.443
06.01.2020 19:45;271.621
06.01.2020 20:00;263.990
06.01.2020 20:15;258.757
06.01.2020 20:30;257.628
06.01.2020 20:45;252.662
06.01.2020 21:00;248.139
06.01.2020 21:15;241.613
06.01.2020 21:30;236.510
06.01.2020 21:45;232.715
06.01.2020 22:00;225.177
06.01.2020 22:15;221.854
06.01.2020 22:30;213.164
06.01.2020 22:45;206.389
06.01.2020 23:00;197.980
06.01.2020 23:15;191.266
06.01.2020 23:30;183.283
06.01.2020 23:45;178.112
07.01.2020 00:00;172.266
07.01.2020 00:15;167.895
07.01.2020 00:30;164.616
07.01.2020 00:45;160.370
07.01.2020 01:00;156.828
07.01.2020 01:15;153.417
07.01.2020 01:30;152.130
07.01.2020 01:45;149.538
07.01.2020 02:00;149.600
07.01.2020 02:15;148.629
07.01.2020 02:30;149.751
07.01.2020 02:45;151.014
07.01.2020 03:00;151.499
07.01.2020 03:15;152.346
07.01.2020 03:30;153.200
07.01.2020 03:45;155.179
07.01.2020 04:00;158.464
07.01.2020 04:15;160.153
07.01.2020 04:30;160.983
07.01.2020 04:45;165.827
07.01.2020 05:00;171.617
07.01.2020 05:15;174.522
07.01.2020 05:30;182.673
07.01.2020 05:45;190.862
07.01.2020 06:00;206.390
07.01.2020 06:15;220.166
07.01.2020 06:30;229.249
07.01.2020 06:45;233.702
07.01.2020 07:00;242.386
07.01.2020 07:15;246.402
07.01.2020 07:30;249.493
07.01.2020 07:45;251.777
07.01.2020 08:00;257.304
07.01.2020 08:15;259.430
07.01.2020 08:30;257.819
07.01.2020 08:45;258.329
07.01.2020 09:00;259.040
07.01.2020 09:15;259.218
07.01.2020 09:30;260.319
07.01.2020 09:45;263.564
07.01.2020 10:00;263.314
07.01.2020 10:15;267.578
07.01.2020 10:30;267.883
07.01.2020 10:45;269.008
07.01.2020 11:00;271.135
07.01.2020 11:15;270.556
07.01.2020 11:30;270.271
07.01.2020 11:45;270.846
07.01.2020 12:00;271.306
07.01.2020 12:15;271.330
07.01.2020 12:30;271.813
07.01.2020 12:45;274.658
07.01.2020 13:00;274.976
07.01.2020 13:15;276.181
07.01.2020 13:30;274.605
07.01.2020 13:45;273.438
07.01.2020 14:00;278.360
07.01.2020 14:15;280.626
07.01.2020 14:30;278.781
07.01.2020 14:45;276.664
07.01.2020 15:00;272.682
07.01.2020 15:15;268.955
07.01.2020 15:30;267.256
07.01.2020 15:45;265.316
07.01.2020 16:00;261.133
07.01.2020 16:15;259.892
07.01.2020 16:30;260.445
07.01.2020 16:45;266.832
07.01.2020 17:00;275.512
07.01.2020 17:15;280.948
07.01.2020 17:30;282.501
07.01.2020 17:45;281.915
07.01.2020 18:00;278.487
07.01.2020 18:15;277.520
07.01.2020 18:30;277.215
07.01.2020 18:45;278.832
07.01.2020 19:00;276.791
07.01.2020 19:15;273.803
07.01.2020 19:30;269.816
07.01.2020 19:45;266.777
07.01.2020 20:00;262.512
07.01.2020 20:15;256.385
07.01.2020 20:30;252.593
07.01.2020 20:45;249.904
07.01.2020 21:00;243.080
07.01.2020 21:15;240.324
07.01.2020 21:30;233.913
07.01.2020 21:45;231.909
07.01.2020 22:00;224.468
07.01.2020 22:15;218.768
07.01.2020 22:30;211.267
07.01.2020 22:45;204.023
07.01.2020 23:00;195.200
07.01.2020 23:15;187.866
07.01.2020 23:30;180.827
07.01.2020 23:45;175.770
08.01.2020 00:00;169.658
08.01.2020 00:15;163.952
08.01.2020 00:30;160.078
08.01.2020 00:45;156.213
08.01.2020 01:00;154.386
08.01.2020 01:15;151.782
08.01.2020 01:30;149.661
08.01.2020 01:45;146.732
08.01.2020 02:00;145.298
08.01.2020 02:15;145.299
08.01.2020 02:30;145.677
08.01.2020 02:45;147.754
08.01.2020 03:00;148.362
08.01.2020 03:15;149.531
08.01.2020 03:30;151.696
08.01.2020 03:45;152.960
08.01.2020 04:00;156.742
08.01.2020 04:15;158.590
08.01.2020 04:30;160.883
08.01.2020 04:45;165.103
08.01.2020 05:00;171.718
08.01.2020 05:15;174.674
08.01.2020 05:30;181.517
08.01.2020 05:45;190.242
08.01.2020 06:00;205.616
08.01.2020 06:15;217.879
08.01.2020 06:30;224.277
08.01.2020 06:45;234.259
08.01.2020 07:00;243.049
08.01.2020 07:15;249.147
08.01.2020 07:30;252.702
08.01.2020 07:45;255.084
08.01.2020 08:00;259.280
08.01.2020 08:15;262.462
08.01.2020 08:30;261.205
08.01.2020 08:45;262.865
08.01.2020 09:00;262.174
08.01.2020 09:15;262.204
08.01.2020 09:30;262.803
08.01.2020 09:45;263.779
08.01.2020 10:00;264.389
08.01.2020 10:15;268.212
08.01.2020 10:30;270.150
08.01.2020 10:45;269.377
08.01.2020 11:00;270.219
08.01.2020 11:15;272.083
08.01.2020 11:30;271.887
08.01.2020 11:45;273.098
08.01.2020 12:00;274.879
08.01.2020 12:15;276.514
08.01.2020 12:30;277.315
08.01.2020 12:45;277.930
08.01.2020 13:00;275.947
08.01.2020 13:15;277.065
08.01.2020 13:30;273.315
08.01.2020 13:45;271.332
08.01.2020 14:00;274.922
08.01.2020 14:15;277.123
08.01.2020 14:30;276.674
08.01.2020 14:45;275.857
08.01.2020 15:00;276.501
08.01.2020 15:15;276.385
08.01.2020 15:30;275.263
08.01.2020 15:45;274.858
08.01.2020 16:00;271.303
08.01.2020 16:15;272.687
08.01.2020 16:30;275.210
08.01.2020 16:45;279.384
08.01.2020 17:00;284.536
08.01.2020 17:15;286.878
08.01.2020 17:30;286.010
08.01.2020 17:45;286.244
08.01.2020 18:00;284.271
08.01.2020 18:15;283.545
08.01.2020 18:30;282.995
08.01.2020 18:45;283.407
08.01.2020 19:00;280.810
08.01.2020 19:15;277.221
08.01.2020 19:30;274.340
08.01.2020 19:45;272.234
08.01.2020 20:00;265.042
08.01.2020 20:15;259.564
08.01.2020 20:30;256.877
08.01.2020 20:45;251.538
08.01.2020 21:00;246.456
08.01.2020 21:15;240.888
08.01.2020 21:30;235.498
08.01.2020 21:45;231.597
08.01.2020 22:00;227.754
08.01.2020 22:15;221.016
08.01.2020 22:30;213.486
08.01.2020 22:45;205.636
08.01.2020 23:00;197.631
08.01.2020 23:15;191.547
08.01.2020 23:30;184.960
08.01.2020 23:45;179.330
09.01.2020 00:00;174.986
09.01.2020 00:15;171.488
09.01.2020 00:30;167.564
09.01.2020 00:45;166.222
09.01.2020 01:00;161.600
09.01.2020 01:15;159.819
09.01.2020 01:30;157.118
09.01.2020 01:45;155.123
09.01.2020 02:00;153.943
09.01.2020 02:15;153.180
09.01.2020 02:30;154.381
09.01.2020 02:45;153.687
09.01.2020 03:00;153.949
09.01.2020 03:15;154.090
09.01.2020 03:30;154.126
09.01.2020 03:45;155.092
09.01.2020 04:00;159.241
09.01.2020 04:15;160.399
09.01.2020 04:30;162.392
09.01.2020 04:45;166.250
09.01.2020 05:00;173.352
09.01.2020 05:15;176.137
09.01.2020 05:30;182.243
09.01.2020 05:45;190.730
09.01.2020 06:00;207.500
09.01.2020 06:15;220.616
09.01.2020 06:30;229.112
09.01.2020 06:45;235.774
09.01.2020 07:00;246.238
09.01.2020 07:15;249.804
09.01.2020 07:30;253.766
09.01.2020 07:45;256.738
09.01.2020 08:00;262.473
09.01.2020 08:15;264.950
09.01.2020 08:30;265.003
09.01.2020 08:45;265.528
09.01.2020 09:00;266.376
09.01.2020 09:15;267.314
09.01.2020 09:30;267.089
09.01.2020 09:45;269.888
09.01.2020 10:00;271.021
09.01.2020 10:15;274.245
09.01.2020 10:30;276.738
09.01.2020 10:45;278.926
09.01.2020 11:00;278.314
09.01.2020 11:15;282.074
09.01.2020 11:30;280.189
09.01.2020 11:45;281.507
09.01.2020 12:00;282.981
09.01.2020 12:15;281.924
09.01.2020 12:30;283.956
09.01.2020 12:45;285.424
09.01.2020 13:00;283.672
09.01.2020 13:15;281.205
09.01.2020 13:30;279.731
09.01.2020 13:45;276.913
09.01.2020 14:00;283.383
09.01.2020 14:15;284.462
09.01.2020 14:30;285.352
09.01.2020 14:45;283.737
09.01.2020 15:00;282.708
09.01.2020 15:15;277.972
09.01.2020 15:30;278.921
09.01.2020 15:45;275.061
09.01.2020 16:00;272.065
09.01.2020 16:15;272.015
09.01.2020 16:30;272.909
09.01.2020 16:45;277.888
09.01.2020 17:00;284.721
09.01.2020 17:15;286.513
09.01.2020 17:30;283.638
09.01.2020 17:45;281.023
09.01.2020 18:00;277.666
09.01.2020 18:15;279.249
09.01.2020 18:30;280.793
09.01.2020 18:45;282.319
09.01.2020 19:00;281.395
09.01.2020 19:15;278.136
09.01.2020 19:30;274.862
09.01.2020 19:45;271.056
09.01.2020 20:00;264.165
09.01.2020 20:15;259.463
09.01.2020 20:30;255.674
09.01.2020 20:45;250.532
09.01.2020 21:00;245.860
09.01.2020 21:15;242.932
09.01.2020 21:30;236.266
09.01.2020 21:45;231.725
09.01.2020 22:00;223.514
09.01.2020 22:15;216.855
09.01.2020 22:30;210.602
09.01.2020 22:45;204.326
09.01.2020 23:00;195.836
09.01.2020 23:15;190.004
09.01.2020 23:30;184.921
09.01.2020 23:45;178.390
10.01.2020 00:00;173.561
10.01.2020 00:15;169.263
10.01.2020 00:30;166.512
10.01.2020 00:45;165.258
10.01.2020 01:00;161.636
10.01.2020 01:15;158.276
10.01.2020 01:30;155.094
10.01.2020 01:45;153.028
10.01.2020 02:00;151.452
10.01.2020 02:15;150.064
10.01.2020 02:30;150.397
10.01.2020 02:45;151.080
10.01.2020 03:00;151.625
10.01.2020 03:15;152.152
10.01.2020 03:30;153.707
10.01.2020 03:45;155.806
10.01.2020 04:00;159.024
10.01.2020 04:15;159.846
10.01.2020 04:30;161.413
10.01.2020 04:45;165.476
10.01.2020 05:00;172.893
10.01.2020 05:15;178.350
10.01.2020 05:30;184.569
10.01.2020 05:45;193.205
10.01.2020 06:00;206.630
10.01.2020 06:15;217.936
10.01.2020 06:30;229.362
10.01.2020 06:45;238.631
10.01.2020 07:00;247.264
10.01.2020 07:15;253.177
10.01.2020 07:30;256.160
10.01.2020 07:45;258.546
10.01.2020 08:00;263.909
10.01.2020 08:15;266.525
10.01.2020 08:30;267.510
10.01.2020 08:45;269.698
10.01.2020 09:00;271.562
10.01.2020 09:15;273.098
10.01.2020 09:30;273.289
10.01.2020 09:45;273.270
10.01.2020 10:00;274.798
10.01.2020 10:15;277.062
10.01.2020 10:30;277.248
10.01.2020 10:45;277.696
10.01.2020 11:00;278.171
10.01.2020 11:15;278.542
10.01.2020 11:30;278.528
10.01.2020 11:45;281.389
10.01.2020 12:00;284.908
10.01.2020 12:15;284.779
10.01.2020 12:30;283.042
10.01.2020 12:45;281.266